Time,TemperatureF,DewpointF,PressureIn,WindDirection,WindDirectionDegrees,WindSpeedMPH,WindSpeedGustMPH,Humidity,HourlyPrecipIn,Conditions,Clouds,dailyrainin,SoftwareType,DateUTC
2013-07-16 00:00:00,56.3,32.9,29.74,West,270,6.0,10.0,41,0.00,,,0.00,meteohub,2013-07-16 07:00:00,
2013-07-16 00:05:00,56.3,32.9,29.73,West,270,4.0,6.0,41,0.00,,,0.00,meteohub,2013-07-16 07:05:00,
2013-07-16 00:10:00,56.1,33.3,29.73,SW,225,6.0,6.0,42,0.00,,,0.00,meteohub,2013-07-16 07:10:00,
2013-07-16 00:15:00,56.3,33.4,29.73,West,270,4.0,6.0,42,0.00,,,0.00,meteohub,2013-07-16 07:15:00,
2013-07-16 00:21:00,56.3,34.2,29.73,West,270,4.0,6.0,43,0.00,,,0.00,meteohub,2013-07-16 07:21:00,
2013-07-16 00:26:00,56.3,34.7,29.73,West,270,6.0,6.0,44,0.00,,,0.00,meteohub,2013-07-16 07:26:00,
2013-07-16 00:31:00,56.3,35.2,29.73,West,270,3.0,6.0,45,0.00,,,0.00,meteohub,2013-07-16 07:31:00,
2013-07-16 00:36:00,56.3,35.2,29.73,West,270,4.0,6.0,45,0.00,,,0.00,meteohub,2013-07-16 07:36:00,
2013-07-16 00:41:00,56.1,35.1,29.73,NW,315,5.0,6.0,45,0.00,,,0.00,meteohub,2013-07-16 07:41:00,
2013-07-16 00:46:00,56.1,35.1,29.73,West,270,3.0,5.0,45,0.00,,,0.00,meteohub,2013-07-16 07:46:00,
2013-07-16 00:52:00,56.1,35.1,29.73,NW,315,7.0,7.0,45,0.00,,,0.00,meteohub,2013-07-16 07:52:00,
2013-07-16 00:57:00,55.9,34.9,29.73,NW,315,6.0,8.0,45,0.00,,,0.00,meteohub,2013-07-16 07:57:00,
2013-07-16 01:02:00,55.9,34.9,29.73,NW,315,8.0,8.0,45,0.00,,,0.00,meteohub,2013-07-16 08:02:00,
2013-07-16 01:07:00,55.9,34.9,29.73,NW,315,8.0,8.0,45,0.00,,,0.00,meteohub,2013-07-16 08:07:00,
2013-07-16 01:12:00,55.9,34.9,29.73,West,270,4.0,8.0,45,0.00,,,0.00,meteohub,2013-07-16 08:12:00,
2013-07-16 01:17:00,55.9,34.9,29.73,West,270,4.0,8.0,45,0.00,,,0.00,meteohub,2013-07-16 08:17:00,
2013-07-16 01:22:00,55.9,34.9,29.73,West,270,4.0,8.0,45,0.00,,,0.00,meteohub,2013-07-16 08:22:00,
2013-07-16 01:27:00,55.9,34.9,29.73,NW,315,3.0,5.0,45,0.00,,,0.00,meteohub,2013-07-16 08:27:00,
2013-07-16 01:32:00,55.9,34.9,29.73,West,270,2.0,5.0,45,0.00,,,0.00,meteohub,2013-07-16 08:32:00,
2013-07-16 01:38:00,55.9,34.9,29.73,West,270,2.0,4.0,45,0.00,,,0.00,meteohub,2013-07-16 08:38:00,
2013-07-16 01:43:00,55.9,34.9,29.73,SW,225,2.0,3.0,45,0.00,,,0.00,meteohub,2013-07-16 08:43:00,
2013-07-16 01:48:00,56.1,35.1,29.74,West,270,4.0,4.0,45,0.00,,,0.00,meteohub,2013-07-16 08:48:00,
2013-07-16 01:54:00,55.9,34.9,29.73,WSW,248,4.0,4.0,45,0.00,,,0.00,meteohub,2013-07-16 08:54:00,
2013-07-16 01:59:00,55.9,34.9,29.73,West,270,4.0,4.0,45,0.00,,,0.00,meteohub,2013-07-16 08:59:00,
2013-07-16 02:04:00,55.9,34.9,29.73,West,270,2.0,4.0,45,0.00,,,0.00,meteohub,2013-07-16 09:04:00,
2013-07-16 02:09:00,55.9,34.9,29.73,West,270,4.0,4.0,45,0.00,,,0.00,meteohub,2013-07-16 09:09:00,
2013-07-16 02:14:00,55.8,34.7,29.73,SW,225,5.0,5.0,45,0.00,,,0.00,meteohub,2013-07-16 09:14:00,
2013-07-16 02:20:00,55.9,34.9,29.73,West,270,3.0,4.0,45,0.00,,,0.00,meteohub,2013-07-16 09:20:00,
2013-07-16 02:25:00,55.9,34.9,29.73,South,180,3.0,5.0,45,0.00,,,0.00,meteohub,2013-07-16 09:25:00,
2013-07-16 02:30:00,55.9,34.9,29.73,West,270,2.0,6.0,45,0.00,,,0.00,meteohub,2013-07-16 09:30:00,
2013-07-16 02:35:00,55.9,34.9,29.73,SW,225,1.0,6.0,45,0.00,,,0.00,meteohub,2013-07-16 09:35:00,
2013-07-16 02:40:00,55.9,34.9,29.73,West,270,2.0,4.0,45,0.00,,,0.00,meteohub,2013-07-16 09:40:00,
2013-07-16 02:45:00,55.9,34.9,29.73,West,270,2.0,3.0,45,0.00,,,0.00,meteohub,2013-07-16 09:45:00,
2013-07-16 02:51:00,55.9,34.9,29.73,West,270,2.0,3.0,45,0.00,,,0.00,meteohub,2013-07-16 09:51:00,
2013-07-16 02:56:00,55.9,34.9,29.73,WSW,248,2.0,3.0,45,0.00,,,0.00,meteohub,2013-07-16 09:56:00,
2013-07-16 03:01:00,55.9,34.9,29.73,SE,135,2.0,3.0,45,0.00,,,0.00,meteohub,2013-07-16 10:01:00,
2013-07-16 03:06:00,55.9,34.9,29.73,SE,135,2.0,2.0,45,0.00,,,0.00,meteohub,2013-07-16 10:06:00,
2013-07-16 03:11:00,55.9,34.3,29.73,West,270,2.0,3.0,44,0.00,,,0.00,meteohub,2013-07-16 10:11:00,
2013-07-16 03:17:00,55.9,34.9,29.73,West,270,2.0,3.0,45,0.00,,,0.00,meteohub,2013-07-16 10:17:00,
2013-07-16 03:22:00,55.9,34.9,29.74,West,270,3.0,3.0,45,0.00,,,0.00,meteohub,2013-07-16 10:22:00,
2013-07-16 03:27:00,55.8,34.7,29.74,West,270,2.0,3.0,45,0.00,,,0.00,meteohub,2013-07-16 10:27:00,
2013-07-16 03:32:00,55.8,34.7,29.73,West,270,3.0,3.0,45,0.00,,,0.00,meteohub,2013-07-16 10:32:00,
2013-07-16 03:37:00,55.6,35.1,29.73,West,270,1.0,3.0,46,0.00,,,0.00,meteohub,2013-07-16 10:37:00,
2013-07-16 03:42:00,55.6,35.1,29.74,West,270,2.0,3.0,46,0.00,,,0.00,meteohub,2013-07-16 10:42:00,
2013-07-16 03:47:00,55.6,35.1,29.73,West,270,2.0,3.0,46,0.00,,,0.00,meteohub,2013-07-16 10:47:00,
2013-07-16 03:52:00,55.6,35.1,29.73,West,270,2.0,3.0,46,0.00,,,0.00,meteohub,2013-07-16 10:52:00,
2013-07-16 03:57:00,55.6,35.6,29.73,SW,225,3.0,3.0,47,0.00,,,0.00,meteohub,2013-07-16 10:57:00,
2013-07-16 04:02:00,55.6,35.6,29.73,West,270,2.0,3.0,47,0.00,,,0.00,meteohub,2013-07-16 11:02:00,
2013-07-16 04:07:00,55.6,36.1,29.73,West,270,3.0,3.0,48,0.00,,,0.00,meteohub,2013-07-16 11:07:00,
2013-07-16 04:12:00,55.4,36.0,29.73,West,270,2.0,3.0,48,0.00,,,0.00,meteohub,2013-07-16 11:12:00,
2013-07-16 04:17:00,55.4,36.0,29.73,NW,315,1.0,3.0,48,0.00,,,0.00,meteohub,2013-07-16 11:17:00,
2013-07-16 04:23:00,55.4,36.5,29.74,West,270,0.0,3.0,49,0.00,,,0.00,meteohub,2013-07-16 11:23:00,
2013-07-16 04:28:00,55.4,36.5,29.73,NW,315,2.0,2.0,49,0.00,,,0.00,meteohub,2013-07-16 11:28:00,
2013-07-16 04:33:00,55.4,36.5,29.74,West,270,2.0,2.0,49,0.00,,,0.00,meteohub,2013-07-16 11:33:00,
2013-07-16 04:38:00,55.4,37.0,29.73,West,270,0.0,2.0,50,0.00,,,0.00,meteohub,2013-07-16 11:38:00,
2013-07-16 04:43:00,55.4,37.0,29.74,West,270,2.0,2.0,50,0.00,,,0.00,meteohub,2013-07-16 11:43:00,
2013-07-16 04:48:00,55.4,37.0,29.74,West,270,0.0,2.0,50,0.00,,,0.00,meteohub,2013-07-16 11:48:00,
2013-07-16 04:53:00,55.4,37.0,29.74,West,270,2.0,2.0,50,0.00,,,0.00,meteohub,2013-07-16 11:53:00,
2013-07-16 04:59:00,55.4,37.6,29.74,West,270,2.0,2.0,51,0.00,,,0.00,meteohub,2013-07-16 11:59:00,
2013-07-16 05:04:00,55.4,37.6,29.74,West,270,2.0,4.0,51,0.00,,,0.00,meteohub,2013-07-16 12:04:00,
2013-07-16 05:09:00,55.4,37.6,29.74,West,270,2.0,4.0,51,0.00,,,0.00,meteohub,2013-07-16 12:09:00,
2013-07-16 05:14:00,55.4,38.1,29.75,SW,225,2.0,4.0,52,0.00,,,0.00,meteohub,2013-07-16 12:14:00,
2013-07-16 05:19:00,55.4,38.1,29.75,West,270,2.0,4.0,52,0.00,,,0.00,meteohub,2013-07-16 12:19:00,
2013-07-16 05:24:00,55.4,38.5,29.75,West,270,2.0,4.0,53,0.00,,,0.00,meteohub,2013-07-16 12:24:00,
2013-07-16 05:29:00,55.4,38.5,29.75,SW,225,4.0,4.0,53,0.00,,,0.00,meteohub,2013-07-16 12:29:00,
2013-07-16 05:34:00,55.4,38.5,29.75,West,270,2.0,3.0,53,0.00,,,0.00,meteohub,2013-07-16 12:34:00,
2013-07-16 05:40:00,55.2,38.3,29.75,NW,315,2.0,4.0,53,0.00,,,0.00,meteohub,2013-07-16 12:40:00,
2013-07-16 05:45:00,55.2,38.3,29.75,West,270,2.0,4.0,53,0.00,,,0.00,meteohub,2013-07-16 12:45:00,
2013-07-16 05:50:00,55.2,38.3,29.75,West,270,2.0,3.0,53,0.00,,,0.00,meteohub,2013-07-16 12:50:00,
2013-07-16 05:55:00,55.2,38.3,29.76,West,270,2.0,2.0,53,0.00,,,0.00,meteohub,2013-07-16 12:55:00,
2013-07-16 06:00:00,55.2,38.3,29.76,West,270,2.0,4.0,53,0.00,,,0.00,meteohub,2013-07-16 13:00:00,
2013-07-16 06:06:00,55.2,38.3,29.76,West,270,2.0,4.0,53,0.00,,,0.00,meteohub,2013-07-16 13:06:00,
2013-07-16 06:11:00,55.4,39.0,29.76,West,270,0.0,4.0,54,0.00,,,0.00,meteohub,2013-07-16 13:11:00,
2013-07-16 06:16:00,55.4,39.0,29.77,SW,225,2.0,2.0,54,0.00,,,0.00,meteohub,2013-07-16 13:16:00,
2013-07-16 06:21:00,55.4,39.0,29.76,West,270,0.0,2.0,54,0.00,,,0.00,meteohub,2013-07-16 13:21:00,
2013-07-16 06:26:00,55.2,38.8,29.77,West,270,2.0,2.0,54,0.00,,,0.00,meteohub,2013-07-16 13:26:00,
2013-07-16 06:31:00,55.4,39.6,29.77,South,180,2.0,2.0,55,0.00,,,0.00,meteohub,2013-07-16 13:31:00,
2013-07-16 06:36:00,55.4,39.6,29.77,West,270,2.0,2.0,55,0.00,,,0.00,meteohub,2013-07-16 13:36:00,
2013-07-16 06:41:00,55.2,38.8,29.77,North,0,0.0,2.0,54,0.00,,,0.00,meteohub,2013-07-16 13:41:00,
2013-07-16 06:46:00,55.4,39.6,29.77,West,270,1.0,2.0,55,0.00,,,0.00,meteohub,2013-07-16 13:46:00,
2013-07-16 06:51:00,55.4,39.6,29.78,SE,135,1.0,2.0,55,0.00,,,0.00,meteohub,2013-07-16 13:51:00,
2013-07-16 06:56:00,55.4,39.6,29.77,SE,135,1.0,2.0,55,0.00,,,0.00,meteohub,2013-07-16 13:56:00,
2013-07-16 07:02:00,55.4,39.6,29.78,East,90,0.0,2.0,55,0.00,,,0.00,meteohub,2013-07-16 14:02:00,
2013-07-16 07:07:00,55.6,39.7,29.77,SE,135,0.0,2.0,55,0.00,,,0.00,meteohub,2013-07-16 14:07:00,
2013-07-16 07:12:00,55.6,39.7,29.78,SE,135,2.0,2.0,55,0.00,,,0.00,meteohub,2013-07-16 14:12:00,
2013-07-16 07:17:00,55.6,39.7,29.78,West,270,2.0,2.0,55,0.00,,,0.00,meteohub,2013-07-16 14:17:00,
2013-07-16 07:22:00,55.4,39.6,29.78,East,90,2.0,2.0,55,0.00,,,0.00,meteohub,2013-07-16 14:22:00,
2013-07-16 07:26:00,55.4,39.6,29.78,South,180,0.0,2.0,55,0.00,,,0.00,meteohub,2013-07-16 14:26:00,
2013-07-16 07:31:00,55.4,39.6,29.78,SE,135,2.0,2.0,55,0.00,,,0.00,meteohub,2013-07-16 14:31:00,
2013-07-16 07:36:00,55.4,39.6,29.78,South,180,2.0,2.0,55,0.00,,,0.00,meteohub,2013-07-16 14:36:00,
2013-07-16 07:41:00,55.4,39.6,29.78,SE,135,2.0,2.0,55,0.00,,,0.00,meteohub,2013-07-16 14:41:00,
2013-07-16 07:46:00,55.6,39.7,29.78,West,270,2.0,3.0,55,0.00,,,0.00,meteohub,2013-07-16 14:46:00,
2013-07-16 07:51:00,55.8,40.3,29.79,West,270,3.0,3.0,56,0.00,,,0.00,meteohub,2013-07-16 14:51:00,
2013-07-16 07:56:00,55.8,40.3,29.79,West,270,3.0,4.0,56,0.00,,,0.00,meteohub,2013-07-16 14:56:00,
2013-07-16 08:01:00,55.9,40.5,29.79,North,0,2.0,4.0,56,0.00,,,0.00,meteohub,2013-07-16 15:01:00,
2013-07-16 08:06:00,56.1,40.1,29.79,SW,225,2.0,4.0,55,0.00,,,0.00,meteohub,2013-07-16 15:06:00,
2013-07-16 08:11:00,56.1,40.1,29.79,West,270,2.0,3.0,55,0.00,,,0.00,meteohub,2013-07-16 15:11:00,
2013-07-16 08:17:00,56.3,40.3,29.79,South,180,2.0,4.0,55,0.00,,,0.00,meteohub,2013-07-16 15:17:00,
2013-07-16 08:22:00,56.7,40.6,29.79,West,270,2.0,4.0,55,0.00,,,0.00,meteohub,2013-07-16 15:22:00,
2013-07-16 08:27:00,56.7,40.6,29.80,South,180,3.0,4.0,55,0.00,,,0.00,meteohub,2013-07-16 15:27:00,
2013-07-16 08:32:00,56.8,40.5,29.80,SW,225,4.0,4.0,54,0.00,,,0.00,meteohub,2013-07-16 15:32:00,
2013-07-16 08:37:00,57.0,40.5,29.80,SW,225,2.0,4.0,54,0.00,,,0.00,meteohub,2013-07-16 15:37:00,
2013-07-16 08:42:00,56.8,39.4,29.80,SW,225,2.0,4.0,52,0.00,,,0.00,meteohub,2013-07-16 15:42:00,
2013-07-16 08:47:00,57.2,38.7,29.80,West,270,4.0,4.0,50,0.00,,,0.00,meteohub,2013-07-16 15:47:00,
2013-07-16 08:52:00,57.2,38.3,29.80,West,270,2.0,4.0,49,0.00,,,0.00,meteohub,2013-07-16 15:52:00,
2013-07-16 08:57:00,57.2,37.8,29.81,West,270,3.0,4.0,48,0.00,,,0.00,meteohub,2013-07-16 15:57:00,
2013-07-16 09:02:00,57.2,37.2,29.80,West,270,4.0,4.0,47,0.00,,,0.00,meteohub,2013-07-16 16:02:00,
2013-07-16 09:07:00,57.4,36.7,29.81,West,270,2.0,4.0,46,0.00,,,0.00,meteohub,2013-07-16 16:07:00,
2013-07-16 09:13:00,57.7,37.0,29.81,SW,225,2.0,4.0,46,0.00,,,0.00,meteohub,2013-07-16 16:13:00,
2013-07-16 09:18:00,57.7,36.5,29.80,NW,315,5.0,5.0,45,0.00,,,0.00,meteohub,2013-07-16 16:18:00,
2013-07-16 09:23:00,57.7,36.0,29.81,SE,135,2.0,4.0,44,0.00,,,0.00,meteohub,2013-07-16 16:23:00,
2013-07-16 09:28:00,57.9,34.9,29.81,SW,225,2.0,6.0,42,0.00,,,0.00,meteohub,2013-07-16 16:28:00,
2013-07-16 09:34:00,58.1,34.0,29.81,West,270,1.0,6.0,40,0.00,,,0.00,meteohub,2013-07-16 16:34:00,
2013-07-16 09:39:00,58.6,33.1,29.81,NW,315,5.0,6.0,38,0.00,,,0.00,meteohub,2013-07-16 16:39:00,
2013-07-16 09:44:00,58.6,31.8,29.80,West,270,8.0,8.0,36,0.00,,,0.00,meteohub,2013-07-16 16:44:00,
2013-07-16 09:49:00,58.3,30.7,29.81,West,270,6.0,6.0,35,0.00,,,0.00,meteohub,2013-07-16 16:49:00,
2013-07-16 09:54:00,57.9,31.1,29.81,NW,315,8.0,9.0,36,0.00,,,0.00,meteohub,2013-07-16 16:54:00,
2013-07-16 10:00:00,57.9,31.1,29.81,NW,315,8.0,9.0,36,0.00,,,0.00,meteohub,2013-07-16 17:00:00,
2013-07-16 10:05:00,58.1,31.3,29.81,West,270,5.0,9.0,36,0.00,,,0.00,meteohub,2013-07-16 17:05:00,
2013-07-16 10:10:00,58.5,30.9,29.81,West,270,4.0,10.0,35,0.00,,,0.00,meteohub,2013-07-16 17:10:00,
2013-07-16 10:15:00,58.6,31.1,29.81,NW,315,10.0,10.0,35,0.00,,,0.00,meteohub,2013-07-16 17:15:00,
2013-07-16 10:20:00,58.5,30.9,29.81,NW,315,7.0,11.0,35,0.00,,,0.00,meteohub,2013-07-16 17:20:00,
2013-07-16 10:25:00,58.3,31.5,29.82,SW,225,11.0,11.0,36,0.00,,,0.00,meteohub,2013-07-16 17:25:00,
2013-07-16 10:31:00,58.1,32.0,29.82,North,0,10.0,11.0,37,0.00,,,0.00,meteohub,2013-07-16 17:31:00,
2013-07-16 10:36:00,58.3,33.4,29.82,NW,315,11.0,11.0,39,0.00,,,0.00,meteohub,2013-07-16 17:36:00,
2013-07-16 10:41:00,57.9,32.5,29.82,West,270,9.0,11.0,38,0.00,,,0.00,meteohub,2013-07-16 17:41:00,
2013-07-16 10:46:00,57.7,33.6,29.82,West,270,11.0,12.0,40,0.00,,,0.00,meteohub,2013-07-16 17:46:00,
2013-07-16 10:51:00,57.4,34.5,29.82,West,270,8.0,12.0,42,0.00,,,0.00,meteohub,2013-07-16 17:51:00,
2013-07-16 10:56:00,57.7,36.0,29.82,West,270,8.0,11.0,44,0.00,,,0.00,meteohub,2013-07-16 17:56:00,
2013-07-16 11:01:00,57.9,35.6,29.82,West,270,9.0,11.0,43,0.00,,,0.00,meteohub,2013-07-16 18:01:00,
2013-07-16 11:07:00,57.9,35.6,29.83,West,270,9.0,10.0,43,0.00,,,0.00,meteohub,2013-07-16 18:07:00,
2013-07-16 11:12:00,58.5,33.6,29.83,West,270,9.0,10.0,39,0.00,,,0.00,meteohub,2013-07-16 18:12:00,
2013-07-16 11:17:00,58.5,32.4,29.83,NW,315,11.0,11.0,37,0.00,,,0.00,meteohub,2013-07-16 18:17:00,
2013-07-16 11:22:00,58.5,31.6,29.83,NW,315,8.0,11.0,36,0.00,,,0.00,meteohub,2013-07-16 18:22:00,
2013-07-16 11:27:00,58.6,31.8,29.83,West,270,9.0,11.0,36,0.00,,,0.00,meteohub,2013-07-16 18:27:00,
2013-07-16 11:32:00,58.8,30.6,29.83,West,270,9.0,11.0,34,0.00,,,0.00,meteohub,2013-07-16 18:32:00,
2013-07-16 11:37:00,58.6,30.4,29.83,West,270,11.0,11.0,34,0.00,,,0.00,meteohub,2013-07-16 18:37:00,
2013-07-16 11:43:00,58.5,30.2,29.83,West,270,8.0,11.0,34,0.00,,,0.00,meteohub,2013-07-16 18:43:00,
2013-07-16 11:48:00,58.3,30.0,29.83,SW,225,7.0,11.0,34,0.00,,,0.00,meteohub,2013-07-16 18:48:00,
2013-07-16 11:53:00,58.3,30.7,29.83,West,270,8.0,11.0,35,0.00,,,0.00,meteohub,2013-07-16 18:53:00,
2013-07-16 11:58:00,58.5,30.9,29.83,NW,315,9.0,11.0,35,0.00,,,0.00,meteohub,2013-07-16 18:58:00,
2013-07-16 12:03:00,58.3,31.5,29.84,North,0,7.0,11.0,36,0.00,,,0.00,meteohub,2013-07-16 19:03:00,
2013-07-16 12:08:00,58.1,32.5,29.84,NW,315,9.0,11.0,38,0.00,,,0.00,meteohub,2013-07-16 19:08:00,
2013-07-16 12:13:00,57.6,32.2,29.84,West,270,10.0,13.0,38,0.00,,,0.00,meteohub,2013-07-16 19:13:00,
2013-07-16 12:18:00,57.9,32.5,29.84,NW,315,6.0,13.0,38,0.00,,,0.00,meteohub,2013-07-16 19:18:00,
2013-07-16 12:23:00,58.5,32.9,29.84,NW,315,5.0,13.0,38,0.00,,,0.00,meteohub,2013-07-16 19:23:00,
2013-07-16 12:28:00,59.0,31.5,29.84,NW,315,10.0,12.0,35,0.00,,,0.00,meteohub,2013-07-16 19:28:00,
2013-07-16 12:33:00,58.8,31.3,29.84,West,270,8.0,12.0,35,0.00,,,0.00,meteohub,2013-07-16 19:33:00,
2013-07-16 12:39:00,59.2,30.7,29.84,West,270,13.0,15.0,34,0.00,,,0.00,meteohub,2013-07-16 19:39:00,
2013-07-16 12:44:00,59.5,30.4,29.84,North,0,10.0,15.0,33,0.00,,,0.00,meteohub,2013-07-16 19:44:00,
2013-07-16 12:49:00,59.4,28.8,29.84,NW,315,9.0,13.0,31,0.00,,,0.00,meteohub,2013-07-16 19:49:00,
2013-07-16 12:54:00,59.2,29.3,29.84,West,270,11.0,13.0,32,0.00,,,0.00,meteohub,2013-07-16 19:54:00,
2013-07-16 12:59:00,59.4,29.5,29.84,West,270,8.0,13.0,32,0.00,,,0.00,meteohub,2013-07-16 19:59:00,
2013-07-16 13:04:00,59.5,28.9,29.84,NW,315,8.0,13.0,31,0.00,,,0.00,meteohub,2013-07-16 20:04:00,
2013-07-16 13:09:00,60.1,26.8,29.84,West,270,8.0,11.0,28,0.00,,,0.00,meteohub,2013-07-16 20:09:00,
2013-07-16 13:14:00,61.0,25.9,29.84,West,270,10.0,11.0,26,0.00,,,0.00,meteohub,2013-07-16 20:14:00,
2013-07-16 13:19:00,61.7,26.4,29.84,North,0,10.0,11.0,26,0.00,,,0.00,meteohub,2013-07-16 20:19:00,
2013-07-16 13:24:00,62.1,26.8,29.84,WNW,293,15.0,15.0,26,0.00,,,0.00,meteohub,2013-07-16 20:24:00,
2013-07-16 13:29:00,62.2,27.0,29.84,North,0,11.0,13.0,26,0.00,,,0.00,meteohub,2013-07-16 20:29:00,
2013-07-16 13:35:00,62.1,25.9,29.83,North,0,11.0,15.0,25,0.00,,,0.00,meteohub,2013-07-16 20:35:00,
2013-07-16 13:40:00,62.6,25.3,29.83,NW,315,8.0,15.0,24,0.00,,,0.00,meteohub,2013-07-16 20:40:00,
2013-07-16 13:45:00,63.0,25.5,29.83,NW,315,8.0,13.0,24,0.00,,,0.00,meteohub,2013-07-16 20:45:00,
2013-07-16 13:50:00,62.4,26.1,29.83,NW,315,8.0,13.0,25,0.00,,,0.00,meteohub,2013-07-16 20:50:00,
2013-07-16 13:55:00,62.8,25.5,29.83,WNW,293,13.0,17.0,24,0.00,,,0.00,meteohub,2013-07-16 20:55:00,
2013-07-16 14:00:00,62.1,25.9,29.83,SW,225,11.0,17.0,25,0.00,,,0.00,meteohub,2013-07-16 21:00:00,
2013-07-16 14:05:00,62.4,26.1,29.83,WNW,293,13.0,16.0,25,0.00,,,0.00,meteohub,2013-07-16 21:05:00,
2013-07-16 14:10:00,62.8,25.5,29.84,NW,315,12.0,16.0,24,0.00,,,0.00,meteohub,2013-07-16 21:10:00,
2013-07-16 14:15:00,62.4,26.1,29.83,NW,315,15.0,17.0,25,0.00,,,0.00,meteohub,2013-07-16 21:15:00,
2013-07-16 14:20:00,62.6,25.3,29.83,NW,315,15.0,17.0,24,0.00,,,0.00,meteohub,2013-07-16 21:20:00,
2013-07-16 14:25:00,62.8,25.5,29.83,West,270,12.0,17.0,24,0.00,,,0.00,meteohub,2013-07-16 21:25:00,
2013-07-16 14:31:00,62.8,25.5,29.83,West,270,11.0,15.0,24,0.00,,,0.00,meteohub,2013-07-16 21:31:00,
2013-07-16 14:36:00,63.0,25.5,29.83,NW,315,15.0,15.0,24,0.00,,,0.00,meteohub,2013-07-16 21:36:00,
2013-07-16 14:41:00,62.8,25.5,29.83,West,270,15.0,18.0,24,0.00,,,0.00,meteohub,2013-07-16 21:41:00,
2013-07-16 14:46:00,62.6,25.3,29.83,West,270,18.0,19.0,24,0.00,,,0.00,meteohub,2013-07-16 21:46:00,
2013-07-16 14:51:00,62.6,25.3,29.84,NW,315,12.0,19.0,24,0.00,,,0.00,meteohub,2013-07-16 21:51:00,
2013-07-16 14:56:00,63.1,25.7,29.83,NW,315,15.0,19.0,24,0.00,,,0.00,meteohub,2013-07-16 21:56:00,
2013-07-16 15:01:00,63.1,25.7,29.83,West,270,14.0,18.0,24,0.00,,,0.00,meteohub,2013-07-16 22:01:00,
2013-07-16 15:06:00,63.1,25.7,29.83,West,270,14.0,17.0,24,0.00,,,0.00,meteohub,2013-07-16 22:06:00,
2013-07-16 15:11:00,63.5,26.1,29.83,NW,315,12.0,17.0,24,0.00,,,0.00,meteohub,2013-07-16 22:11:00,
2013-07-16 15:16:00,63.9,26.4,29.83,West,270,16.0,16.0,24,0.00,,,0.00,meteohub,2013-07-16 22:16:00,
2013-07-16 15:21:00,63.7,26.2,29.83,North,0,14.0,16.0,24,0.00,,,0.00,meteohub,2013-07-16 22:21:00,
2013-07-16 15:26:00,63.9,26.4,29.83,West,270,10.0,16.0,24,0.00,,,0.00,meteohub,2013-07-16 22:26:00,
2013-07-16 15:32:00,63.9,26.4,29.83,West,270,12.0,16.0,24,0.00,,,0.00,meteohub,2013-07-16 22:32:00,
2013-07-16 15:37:00,63.7,26.2,29.83,West,270,11.0,18.0,24,0.00,,,0.00,meteohub,2013-07-16 22:37:00,
2013-07-16 15:42:00,63.5,26.1,29.83,West,270,13.0,18.0,24,0.00,,,0.00,meteohub,2013-07-16 22:42:00,
2013-07-16 15:47:00,63.7,26.2,29.83,West,270,15.0,16.0,24,0.00,,,0.00,meteohub,2013-07-16 22:47:00,
2013-07-16 15:52:00,63.3,25.9,29.83,West,270,17.0,17.0,24,0.00,,,0.00,meteohub,2013-07-16 22:52:00,
2013-07-16 15:57:00,63.5,26.1,29.83,NW,315,15.0,17.0,24,0.00,,,0.00,meteohub,2013-07-16 22:57:00,
2013-07-16 16:02:00,63.5,26.1,29.83,West,270,13.0,17.0,24,0.00,,,0.00,meteohub,2013-07-16 23:02:00,
2013-07-16 16:07:00,63.3,25.9,29.83,SW,225,9.0,17.0,24,0.00,,,0.00,meteohub,2013-07-16 23:07:00,
2013-07-16 16:12:00,63.5,26.1,29.83,West,270,13.0,15.0,24,0.00,,,0.00,meteohub,2013-07-16 23:12:00,
2013-07-16 16:17:00,63.5,26.1,29.83,NW,315,15.0,15.0,24,0.00,,,0.00,meteohub,2013-07-16 23:17:00,
2013-07-16 16:22:00,63.5,26.1,29.83,NW,315,9.0,16.0,24,0.00,,,0.00,meteohub,2013-07-16 23:22:00,
2013-07-16 16:27:00,64.0,26.6,29.82,West,270,12.0,16.0,24,0.00,,,0.00,meteohub,2013-07-16 23:27:00,
2013-07-16 16:32:00,64.2,26.6,29.82,West,270,11.0,16.0,24,0.00,,,0.00,meteohub,2013-07-16 23:32:00,
2013-07-16 16:37:00,64.0,26.6,29.82,West,270,15.0,16.0,24,0.00,,,0.00,meteohub,2013-07-16 23:37:00,
2013-07-16 16:42:00,64.0,26.6,29.82,NW,315,14.0,15.0,24,0.00,,,0.00,meteohub,2013-07-16 23:42:00,
2013-07-16 16:48:00,64.0,26.6,29.82,West,270,15.0,15.0,24,0.00,,,0.00,meteohub,2013-07-16 23:48:00,
2013-07-16 16:53:00,63.7,26.2,29.82,SW,225,17.0,17.0,24,0.00,,,0.00,meteohub,2013-07-16 23:53:00,
2013-07-16 16:58:00,63.5,26.1,29.82,West,270,11.0,17.0,24,0.00,,,0.00,meteohub,2013-07-16 23:58:00,
2013-07-16 17:03:00,63.5,27.0,29.82,NW,315,14.0,17.0,25,0.00,,,0.00,meteohub,2013-07-17 00:03:00,
2013-07-16 17:08:00,63.5,27.0,29.82,NW,315,14.0,17.0,25,0.00,,,0.00,meteohub,2013-07-17 00:08:00,
2013-07-16 17:13:00,63.0,26.6,29.82,NW,315,11.0,17.0,25,0.00,,,0.00,meteohub,2013-07-17 00:13:00,
2013-07-16 17:18:00,63.0,26.6,29.82,SW,225,15.0,16.0,25,0.00,,,0.00,meteohub,2013-07-17 00:18:00,
2013-07-16 17:23:00,62.8,26.4,29.82,West,270,11.0,16.0,25,0.00,,,0.00,meteohub,2013-07-17 00:23:00,
2013-07-16 17:28:00,62.8,26.4,29.82,NW,315,12.0,17.0,25,0.00,,,0.00,meteohub,2013-07-17 00:28:00,
2013-07-16 17:33:00,62.8,27.3,29.82,North,0,11.0,17.0,26,0.00,,,0.00,meteohub,2013-07-17 00:33:00,
2013-07-16 17:38:00,62.6,27.1,29.82,West,270,15.0,17.0,26,0.00,,,0.00,meteohub,2013-07-17 00:38:00,
2013-07-16 17:44:00,62.4,28.0,29.82,NW,315,12.0,17.0,27,0.00,,,0.00,meteohub,2013-07-17 00:44:00,
2013-07-16 17:49:00,62.2,27.9,29.82,West,270,11.0,17.0,27,0.00,,,0.00,meteohub,2013-07-17 00:49:00,
2013-07-16 17:54:00,62.4,28.0,29.82,West,270,13.0,16.0,27,0.00,,,0.00,meteohub,2013-07-17 00:54:00,
2013-07-16 17:59:00,62.2,28.8,29.82,West,270,14.0,16.0,28,0.00,,,0.00,meteohub,2013-07-17 00:59:00,
2013-07-16 18:04:00,62.1,27.7,29.82,West,270,15.0,16.0,27,0.00,,,0.00,meteohub,2013-07-17 01:04:00,
2013-07-16 18:09:00,61.9,28.4,29.82,NW,315,13.0,15.0,28,0.00,,,0.00,meteohub,2013-07-17 01:09:00,
2013-07-16 18:14:00,61.7,28.2,29.82,West,270,13.0,17.0,28,0.00,,,0.00,meteohub,2013-07-17 01:14:00,
2013-07-16 18:19:00,61.5,28.9,29.82,NW,315,11.0,17.0,29,0.00,,,0.00,meteohub,2013-07-17 01:19:00,
2013-07-16 18:24:00,61.5,28.9,29.82,West,270,11.0,17.0,29,0.00,,,0.00,meteohub,2013-07-17 01:24:00,
2013-07-16 18:29:00,61.5,28.9,29.82,West,270,14.0,15.0,29,0.00,,,0.00,meteohub,2013-07-17 01:29:00,
2013-07-16 18:34:00,61.2,30.2,29.82,West,270,12.0,15.0,31,0.00,,,0.00,meteohub,2013-07-17 01:34:00,
2013-07-16 18:39:00,61.2,30.2,29.82,West,270,8.0,15.0,31,0.00,,,0.00,meteohub,2013-07-17 01:39:00,
2013-07-16 18:45:00,61.2,30.2,29.82,NW,315,8.0,15.0,31,0.00,,,0.00,meteohub,2013-07-17 01:45:00,
2013-07-16 18:50:00,61.2,30.2,29.82,NW,315,9.0,12.0,31,0.00,,,0.00,meteohub,2013-07-17 01:50:00,
2013-07-16 18:55:00,61.5,30.6,29.82,West,270,11.0,12.0,31,0.00,,,0.00,meteohub,2013-07-17 01:55:00,
2013-07-16 19:00:00,61.0,30.9,29.83,West,270,12.0,12.0,32,0.00,,,0.00,meteohub,2013-07-17 02:00:00,
2013-07-16 19:05:00,61.0,30.9,29.83,West,270,12.0,12.0,32,0.00,,,0.00,meteohub,2013-07-17 02:05:00,
2013-07-16 19:10:00,60.3,31.1,29.82,West,270,8.0,12.0,33,0.00,,,0.00,meteohub,2013-07-17 02:10:00,
2013-07-16 19:15:00,60.4,31.3,29.83,West,270,7.0,12.0,33,0.00,,,0.00,meteohub,2013-07-17 02:15:00,
2013-07-16 19:20:00,60.6,31.3,29.83,West,270,11.0,12.0,33,0.00,,,0.00,meteohub,2013-07-17 02:20:00,
2013-07-16 19:25:00,60.4,31.3,29.83,NW,315,14.0,14.0,33,0.00,,,0.00,meteohub,2013-07-17 02:25:00,
2013-07-16 19:30:00,60.3,31.1,29.83,NW,315,10.0,14.0,33,0.00,,,0.00,meteohub,2013-07-17 02:30:00,
2013-07-16 19:35:00,60.3,31.1,29.83,West,270,8.0,14.0,33,0.00,,,0.00,meteohub,2013-07-17 02:35:00,
2013-07-16 19:41:00,60.1,31.6,29.83,West,270,11.0,14.0,34,0.00,,,0.00,meteohub,2013-07-17 02:41:00,
2013-07-16 19:46:00,59.9,31.5,29.83,NW,315,9.0,11.0,34,0.00,,,0.00,meteohub,2013-07-17 02:46:00,
2013-07-16 19:51:00,59.7,32.0,29.83,West,270,4.0,11.0,35,0.00,,,0.00,meteohub,2013-07-17 02:51:00,
2013-07-16 19:56:00,59.7,32.0,29.83,West,270,8.0,11.0,35,0.00,,,0.00,meteohub,2013-07-17 02:56:00,
2013-07-16 20:01:00,59.5,31.8,29.83,West,270,6.0,11.0,35,0.00,,,0.00,meteohub,2013-07-17 03:01:00,
2013-07-16 20:06:00,59.5,31.8,29.83,SW,225,6.0,11.0,35,0.00,,,0.00,meteohub,2013-07-17 03:06:00,
2013-07-16 20:11:00,59.4,32.4,29.83,NW,315,9.0,9.0,36,0.00,,,0.00,meteohub,2013-07-17 03:11:00,
2013-07-16 20:16:00,59.2,32.2,29.83,West,270,6.0,9.0,36,0.00,,,0.00,meteohub,2013-07-17 03:16:00,
2013-07-16 20:21:00,59.0,32.0,29.83,West,270,7.0,9.0,36,0.00,,,0.00,meteohub,2013-07-17 03:21:00,
2013-07-16 20:26:00,58.8,33.3,29.83,NW,315,8.0,11.0,38,0.00,,,0.00,meteohub,2013-07-17 03:26:00,
2013-07-16 20:31:00,58.6,33.8,29.83,West,270,7.0,11.0,39,0.00,,,0.00,meteohub,2013-07-17 03:31:00,
2013-07-16 20:37:00,58.6,34.3,29.84,West,270,7.0,9.0,40,0.00,,,0.00,meteohub,2013-07-17 03:37:00,
2013-07-16 20:42:00,58.5,34.2,29.84,West,270,4.0,9.0,40,0.00,,,0.00,meteohub,2013-07-17 03:42:00,
2013-07-16 20:47:00,58.5,34.9,29.83,West,270,7.0,8.0,41,0.00,,,0.00,meteohub,2013-07-17 03:47:00,
2013-07-16 20:52:00,58.3,35.2,29.84,NW,315,6.0,8.0,42,0.00,,,0.00,meteohub,2013-07-17 03:52:00,
2013-07-16 20:57:00,58.1,35.8,29.84,West,270,3.0,8.0,43,0.00,,,0.00,meteohub,2013-07-17 03:57:00,
2013-07-16 21:01:00,58.1,35.8,29.84,West,270,4.0,8.0,43,0.00,,,0.00,meteohub,2013-07-17 04:01:00,
2013-07-16 21:02:00,58.1,35.8,29.84,West,270,8.0,8.0,43,0.00,,,0.00,meteohub,2013-07-17 04:02:00,
2013-07-16 21:03:00,58.1,36.3,29.85,West,270,4.0,8.0,44,0.00,,,0.00,meteohub,2013-07-17 04:03:00,
2013-07-16 21:04:00,58.1,36.3,29.84,West,270,4.0,8.0,44,0.00,,,0.00,meteohub,2013-07-17 04:04:00,
2013-07-16 21:09:00,58.1,36.3,29.84,West,270,7.0,8.0,44,0.00,,,0.00,meteohub,2013-07-17 04:09:00,
2013-07-16 21:14:00,58.1,36.3,29.85,SW,225,8.0,8.0,44,0.00,,,0.00,meteohub,2013-07-17 04:14:00,
2013-07-16 21:19:00,58.1,36.9,29.85,SW,225,6.0,8.0,45,0.00,,,0.00,meteohub,2013-07-17 04:19:00,
2013-07-16 21:24:00,58.1,36.9,29.85,West,270,4.0,10.0,45,0.00,,,0.00,meteohub,2013-07-17 04:24:00,
2013-07-16 21:29:00,57.9,36.7,29.85,West,270,4.0,10.0,45,0.00,,,0.00,meteohub,2013-07-17 04:29:00,
2013-07-16 21:35:00,57.9,36.7,29.85,West,270,5.0,10.0,45,0.00,,,0.00,meteohub,2013-07-17 04:35:00,
2013-07-16 21:40:00,57.7,36.5,29.85,SW,225,5.0,6.0,45,0.00,,,0.00,meteohub,2013-07-17 04:40:00,
2013-07-16 21:45:00,57.6,36.9,29.86,NW,315,4.0,6.0,46,0.00,,,0.00,meteohub,2013-07-17 04:45:00,
2013-07-16 21:50:00,57.6,36.9,29.86,NW,315,6.0,6.0,46,0.00,,,0.00,meteohub,2013-07-17 04:50:00,
2013-07-16 21:55:00,57.7,37.6,29.86,West,270,4.0,8.0,47,0.00,,,0.00,meteohub,2013-07-17 04:55:00,
2013-07-16 22:00:00,57.9,38.3,29.86,NW,315,5.0,10.0,48,0.00,,,0.00,meteohub,2013-07-17 05:00:00,
2013-07-16 22:01:00,57.9,38.3,29.86,West,270,4.0,10.0,48,0.00,,,0.00,meteohub,2013-07-17 05:01:00,
2013-07-16 22:06:00,57.9,38.3,29.86,West,270,5.0,10.0,48,0.00,,,0.00,meteohub,2013-07-17 05:06:00,
2013-07-16 22:11:00,57.7,38.1,29.86,NW,315,3.0,10.0,48,0.00,,,0.00,meteohub,2013-07-17 05:11:00,
2013-07-16 22:16:00,57.6,37.9,29.86,West,270,4.0,8.0,48,0.00,,,0.00,meteohub,2013-07-17 05:16:00,
2013-07-16 22:21:00,57.6,37.9,29.86,West,270,5.0,9.0,48,0.00,,,0.00,meteohub,2013-07-17 05:21:00,
2013-07-16 22:26:00,57.6,37.9,29.86,West,270,6.0,9.0,48,0.00,,,0.00,meteohub,2013-07-17 05:26:00,
2013-07-16 22:31:00,57.6,38.5,29.86,NW,315,8.0,9.0,49,0.00,,,0.00,meteohub,2013-07-17 05:31:00,
2013-07-16 22:37:00,57.7,38.7,29.86,WSW,248,4.0,9.0,49,0.00,,,0.00,meteohub,2013-07-17 05:37:00,
2013-07-16 22:42:00,57.9,38.8,29.86,NW,315,4.0,9.0,49,0.00,,,0.00,meteohub,2013-07-17 05:42:00,
2013-07-16 22:47:00,57.9,38.8,29.86,NW,315,4.0,10.0,49,0.00,,,0.00,meteohub,2013-07-17 05:47:00,
2013-07-16 22:52:00,57.7,38.1,29.86,West,270,6.0,10.0,48,0.00,,,0.00,meteohub,2013-07-17 05:52:00,
2013-07-16 22:57:00,57.7,38.1,29.87,NW,315,7.0,10.0,48,0.00,,,0.00,meteohub,2013-07-17 05:57:00,
2013-07-16 23:02:00,57.7,38.1,29.86,NW,315,9.0,9.0,48,0.00,,,0.00,meteohub,2013-07-17 06:02:00,
2013-07-16 23:07:00,57.7,38.7,29.86,West,270,8.0,10.0,49,0.00,,,0.00,meteohub,2013-07-17 06:07:00,
2013-07-16 23:12:00,57.7,38.7,29.86,NW,315,8.0,12.0,49,0.00,,,0.00,meteohub,2013-07-17 06:12:00,
2013-07-16 23:17:00,57.6,38.5,29.86,NW,315,8.0,12.0,49,0.00,,,0.00,meteohub,2013-07-17 06:17:00,
2013-07-16 23:22:00,57.4,38.8,29.86,West,270,9.0,11.0,50,0.00,,,0.00,meteohub,2013-07-17 06:22:00,
2013-07-16 23:27:00,57.0,39.0,29.86,West,270,8.0,11.0,51,0.00,,,0.00,meteohub,2013-07-17 06:27:00,
2013-07-16 23:33:00,57.0,39.6,29.86,West,270,4.0,10.0,52,0.00,,,0.00,meteohub,2013-07-17 06:33:00,
2013-07-16 23:38:00,57.0,39.6,29.86,West,270,8.0,10.0,52,0.00,,,0.00,meteohub,2013-07-17 06:38:00,
2013-07-16 23:43:00,57.0,40.1,29.86,West,270,4.0,8.0,53,0.00,,,0.00,meteohub,2013-07-17 06:43:00,
2013-07-16 23:48:00,56.8,39.9,29.86,West,270,5.0,8.0,53,0.00,,,0.00,meteohub,2013-07-17 06:48:00,
2013-07-16 23:53:00,56.8,40.5,29.86,West,270,3.0,9.0,54,0.00,,,0.00,meteohub,2013-07-17 06:53:00,
2013-07-16 23:58:00,57.0,40.5,29.86,West,270,7.0,9.0,54,0.00,,,0.00,meteohub,2013-07-17 06:58:00,